Flag Weather past 2 weeks in Kaunas, Lithuania

Now
23 °F

Light snow. Ice fog.


Feels Like: 14 °F
Forecast: 15 / 19 °F
Wind: 8 mph from East

Location: Kaunas

Current Time: Nov 28, 2014 at 5:10:50 AM

Latest Report: Nov 28, 2014 at 4:20 AM


Visibility: 3 mi

Pressure: 30.39 "Hg

Humidity: 86%

Dew point: 19 °F

Location of KaunasLocation

Historic Weather in Kaunas — Graph

°F

Kaunas temperature yesterday

Maximum temperature yesterday: 28 °F (at 12:20 AM)
Minimum temperature yesterday: 21 °F (at 3:50 PM)
Average temperature yesterday: 24 °F

Past Weeks' High & Low Weather Summary

 TemperatureHumidityPressure
High45 °F (Nov 13, 2:50 PM)100% (Nov 23, 1:50 AM)30.57 "Hg (Nov 23, 1:50 AM)
Low21 °F (Nov 27, 3:50 PM)44% (Nov 18, 1:20 PM)30.09 "Hg (Nov 13, 3:20 AM)
Average34 °F79%30.30 "Hg
* Reported Nov 13 3:20 AM — Nov 28 3:50 AM, Kaunas, Weather by CustomWeather, © 2014

Note: Actual official high and low records may vary slightly from our data, if they occured in-between our weather recording intervals... More about our weather records

Advertising

Kaunas weather history for previous 24 hours

 ConditionsComfort  
Time TempWeatherWind HumidityBarometerVisibility
3:50 AM
Nov 28
23 °FLight snow. Ice fog.7 mph86%30.39 "Hg3 mi
3:20 AM23 °FLight freezing rain. Overcast.8 mph86%30.39 "Hg3 mi
2:50 AM23 °FLight freezing rain. Overcast.7 mph86%30.39 "Hg3 mi
2:20 AM23 °FLight freezing rain. Overcast.7 mph86%30.39 "Hg3 mi
1:50 AM23 °FLight snow. Overcast.8 mph86%30.36 "Hg3 mi
1:20 AM23 °FLight snow. Overcast.7 mph86%30.36 "Hg3 mi
12:50 AM23 °FLight freezing rain. Overcast.8 mph86%30.36 "Hg4 mi
12:20 AM23 °FSnow flurries. Overcast.7 mph86%30.36 "Hg4 mi
11:58 PM
Nov 27
23 °FSnow flurries. Mostly cloudy.7 mph80%30.36 "Hg4 mi
11:20 PM23 °FLight snow. Overcast.8 mph80%30.36 "Hg6 mi
10:50 PM23 °FLight snow. Overcast.8 mph74%30.36 "HgN/A
10:20 PM23 °FLight snow. Overcast.6 mph74%30.36 "HgN/A
9:50 PM23 °FLight snow. Overcast.8 mph74%30.36 "HgN/A
9:20 PM23 °FLight snow. Overcast.7 mph68%30.36 "HgN/A
8:50 PM23 °FLight snow. Overcast.8 mph68%30.36 "HgN/A
8:20 PM23 °FLight snow. Overcast.7 mph74%30.36 "HgN/A
7:50 PM21 °FLight snow. Overcast.7 mph80%30.36 "HgN/A
7:20 PM21 °FLight snow. Overcast.9 mph80%30.36 "HgN/A
6:50 PM21 °FLight snow. Overcast.8 mph80%30.36 "HgN/A
6:20 PM21 °FLight snow. Overcast.9 mph80%30.33 "HgN/A
5:50 PM21 °FLight snow. Overcast.8 mph80%30.33 "HgN/A
5:20 PM21 °FLight snow. Overcast.8 mph80%30.33 "HgN/A
4:50 PM21 °FLight snow. Low clouds.8 mph80%30.33 "HgN/A
4:20 PM21 °FLow clouds.8 mph86%30.33 "HgN/A
3:50 PM21 °FLow clouds.9 mph86%30.33 "HgN/A
3:20 PM23 °FLow clouds.9 mph80%30.33 "HgN/A
2:50 PM23 °FLow clouds.7 mph80%30.33 "HgN/A
2:20 PM23 °FLow clouds.7 mph80%30.33 "HgN/A
1:50 PM23 °FLow clouds.9 mph86%30.33 "Hg6 mi
1:20 PM23 °FLow clouds.9 mph86%30.33 "Hg6 mi
12:50 PM23 °FLow clouds.9 mph86%30.33 "Hg6 mi
12:20 PM23 °FLow clouds.7 mph86%30.33 "Hg6 mi
11:50 AM23 °FLow clouds.8 mph86%30.33 "HgN/A
11:20 AM25 °FLow clouds.9 mph80%30.33 "HgN/A
10:50 AM25 °FLow clouds.9 mph80%30.33 "HgN/A
10:20 AM25 °FMostly cloudy.7 mph86%30.33 "HgN/A
9:50 AM25 °FOvercast.9 mph86%30.33 "HgN/A
9:20 AM27 °FOvercast.7 mph80%30.33 "HgN/A
8:50 AM27 °FMostly cloudy.6 mph80%30.33 "Hg4 mi
8:20 AM25 °FIce fog.7 mph93%30.33 "Hg3 mi
7:50 AM27 °FIce fog.7 mph86%30.33 "Hg3 mi
7:20 AM27 °FLow clouds.5 mph86%30.33 "Hg4 mi
6:50 AM25 °FLow clouds.5 mph93%30.33 "Hg4 mi
6:20 AM25 °FLow clouds.6 mph86%30.33 "Hg4 mi
5:50 AM25 °FIce fog.6 mph93%30.33 "Hg3 mi
5:20 AM25 °FLow clouds.6 mph93%30.33 "Hg4 mi
Weather by CustomWeather, © 2014

See weather overviewHow to use our weather pages